This is the latest recevied weather packets stored in our database for station/object DL4ABR-6. If no packets are shown the sender has not sent any weather packets the latest 10 day(s).
| Time | Temp. | Humidity | Pressure | Rain* | Wind** | Luminosity | Snow |
|---|---|---|---|---|---|---|---|
| 1777934310 | 14.44° C | 99% | 1008.5 hPa | 0.25 mm | - | - | - |
| 1777933560 | 14.44° C | 99% | 1008.6 hPa | 0.25 mm | - | - | - |
| 1777932765 | 14.44° C | 99% | 1008.5 hPa | 0.25 mm | - | - | - |
| 1777932000 | 14.44° C | 99% | 1008.9 hPa | 2.79 mm | - | - | - |
| 1777931265 | 14.44° C | 99% | 1008.9 hPa | 2.79 mm | - | - | - |
| 1777930370 | 14.44° C | 98% | 1009 hPa | 2.54 mm | - | - | - |
| 1777929505 | 14.44° C | 98% | 1008.8 hPa | 2.54 mm | - | - | - |
| 1777928665 | 14.44° C | 98% | 1009.1 hPa | 2.54 mm | - | - | - |
| 1777927845 | 14.44° C | 97% | 1008.8 hPa | 2.54 mm | - | - | - |
| 1777927050 | 15° C | 97% | 1008.8 hPa | 2.54 mm | - | - | - |
| 1777926270 | 15° C | 96% | 1009 hPa | 2.54 mm | - | - | - |
| 1777925465 | 15° C | 95% | 1009.2 hPa | 2.29 mm | - | - | - |
| 1777924615 | 15.56° C | 94% | 1009.1 hPa | 1.52 mm | - | - | - |
| 1777923765 | 15.56° C | 89% | 1009.1 hPa | 0.51 mm | - | - | - |
| 1777922925 | 16.67° C | 85% | 1008.5 hPa | 0 mm | - | - | - |
| 1777922135 | 16.67° C | 83% | 1008 hPa | 0 mm | - | - | - |
| 1777921275 | 16.67° C | 82% | 1008.2 hPa | 0 mm | - | - | - |
| 1777920425 | 17.22° C | 77% | 1007.9 hPa | 0 mm | - | - | - |
| 1777919705 | 17.78° C | 73% | 1007.9 hPa | 0 mm | - | - | - |
| 1777918870 | 18.33° C | 72% | 1008 hPa | 0 mm | - | - | - |
| 1777918135 | 18.33° C | 69% | 1007.7 hPa | 0 mm | - | - | - |
| 1777917280 | 18.89° C | 67% | 1007.8 hPa | 0 mm | - | - | - |
| 1777916410 | 19.44° C | 66% | 1007.4 hPa | 0 mm | - | - | - |
| 1777915595 | 19.44° C | 63% | 1007.6 hPa | 0 mm | - | - | - |
| 1777914780 | 20° C | 62% | 1007.4 hPa | 0 mm | - | - | - |
* Rain since midnight (hover to see other rain measurements)
** Current wind speed in m/s (hover to see current wind gust speed)